timestamp,surface_pressure_avg,surface_temp_avg,battery_voltage,lat,long
2021-06-03 00:09:01+00:00,215.1548,9.68,13.29,47.84626,-54.09684
2021-06-03 00:19:01+00:00,220.6598,9.66,12.97,47.84626,-54.09684
2021-06-03 00:29:01+00:00,223.5631,9.65,12.97,47.84626,-54.09684
2021-06-03 00:39:01+00:00,223.0964,9.67,12.97,47.84626,-54.09684
2021-06-03 00:49:01+00:00,224.4348,9.67,12.97,47.84626,-54.09684
2021-06-03 00:59:01+00:00,227.7498,9.62,12.97,47.84626,-54.09684
2021-06-03 01:09:01+00:00,228.4314,9.6,12.97,47.84626,-54.09684
2021-06-03 01:19:01+00:00,227.4781,9.6,12.65,47.84626,-54.09684
2021-06-03 01:29:01+00:00,229.6981,9.6,12.65,47.84626,-54.09684
2021-06-03 01:39:01+00:00,231.1564,9.6,12.65,47.84626,-54.09684
2021-06-03 01:49:01+00:00,230.8281,9.6,12.65,47.84626,-54.09684
2021-06-03 01:59:01+00:00,233.7464,9.6,12.65,47.84626,-54.09684
2021-06-03 02:09:01+00:00,237.3081,9.6,12.65,47.84626,-54.09684
2021-06-03 02:19:01+00:00,237.8431,9.6,12.65,47.84626,-54.09684
2021-06-03 02:29:01+00:00,240.8431,9.6,12.65,47.84626,-54.09684
2021-06-03 02:39:01+00:00,244.7048,9.6,12.65,47.84626,-54.09684
2021-06-03 02:49:01+00:00,246.7448,9.6,12.65,47.84626,-54.09684
2021-06-03 02:59:01+00:00,250.3931,9.6,12.65,47.84626,-54.09684
2021-06-03 03:09:01+00:00,257.1431,9.6,12.65,47.84626,-54.09684
2021-06-03 03:19:00+00:00,263.9331,9.6,12.65,47.84626,-54.09684
2021-06-03 03:29:00+00:00,268.9047,9.59,12.65,47.84626,-54.09684
2021-06-03 03:39:00+00:00,275.9697,9.59,12.65,47.84626,-54.09684
2021-06-03 03:49:00+00:00,283.4363,9.53,12.65,47.84626,-54.09684
2021-06-03 03:59:00+00:00,288.5647,9.52,12.65,47.84626,-54.09684
2021-06-03 04:09:00+00:00,292.0031,9.5,12.65,47.84626,-54.09684
2021-06-03 04:19:00+00:00,297.8248,9.5,12.65,47.84626,-54.09684
2021-06-03 04:29:00+00:00,303.5514,9.5,12.65,47.84626,-54.09684
2021-06-03 04:39:00+00:00,305.5563,9.5,12.65,47.84626,-54.09684
2021-06-03 04:49:00+00:00,306.5946,9.5,12.65,47.84626,-54.09684
2021-06-03 04:59:00+00:00,308.9896,9.5,12.65,47.84626,-54.09684
2021-06-03 05:09:00+00:00,310.4763,9.5,12.65,47.84626,-54.09684
2021-06-03 05:19:01+00:00,312.0164,9.5,12.65,47.84626,-54.09684
2021-06-03 05:29:01+00:00,314.6897,9.5,12.65,47.84626,-54.09684
2021-06-03 05:39:01+00:00,318.7797,9.5,12.65,47.84626,-54.09684
2021-06-03 05:49:01+00:00,320.9247,9.5,12.65,47.84626,-54.09684
2021-06-03 05:59:01+00:00,321.4263,9.5,12.65,47.84626,-54.09684
2021-06-03 06:09:01+00:00,321.9213,9.5,12.65,47.84626,-54.09684
2021-06-03 06:19:01+00:00,323.6113,9.5,12.65,47.84626,-54.09684
2021-06-03 06:29:01+00:00,325.3664,9.5,12.65,47.84626,-54.09684
2021-06-03 06:39:01+00:00,326.0413,9.46,12.65,47.84626,-54.09684
2021-06-03 06:49:01+00:00,325.7447,9.4,12.65,47.84626,-54.09684
2021-06-03 06:59:01+00:00,322.8763,9.4,12.65,47.84626,-54.09684
2021-06-03 07:09:01+00:00,320.2097,9.43,12.65,47.84626,-54.09684
2021-06-03 07:19:00+00:00,319.0647,9.51,12.57,47.84626,-54.09684
2021-06-03 07:29:00+00:00,319.4097,9.73,12.57,47.84626,-54.09684
2021-06-03 07:39:00+00:00,316.2629,9.81,12.57,47.84626,-54.09684
2021-06-03 07:49:00+00:00,312.488,9.7,12.57,47.84626,-54.09684
2021-06-03 07:59:00+00:00,309.3196,9.5,12.57,47.84626,-54.09684
2021-06-03 08:09:00+00:00,305.4313,9.8,12.57,47.84626,-54.09684
2021-06-03 08:19:00+00:00,299.5747,9.9,12.57,47.84626,-54.09684
2021-06-03 08:29:00+00:00,294.3614,9.98,12.57,47.84626,-54.09684
2021-06-03 08:39:00+00:00,291.6081,10.0,12.57,47.84626,-54.09684
2021-06-03 08:49:00+00:00,284.728,10.07,12.57,47.84626,-54.09684
2021-06-03 08:59:00+00:00,275.6163,10.0,12.57,47.84626,-54.09684
2021-06-03 09:09:00+00:00,270.7331,10.0,12.57,47.84626,-54.09684
2021-06-03 09:19:00+00:00,266.5064,10.0,12.81,47.84626,-54.09684
2021-06-03 09:29:00+00:00,260.1364,10.0,12.81,47.84626,-54.09684
2021-06-03 09:39:00+00:00,252.168,10.0,12.81,47.84626,-54.09684
2021-06-03 09:49:00+00:00,247.4281,10.09,12.81,47.84626,-54.09684
2021-06-03 09:59:00+00:00,243.1931,10.1,12.81,47.84626,-54.09684
2021-06-03 10:09:00+00:00,238.4164,10.1,12.81,47.84626,-54.09684
2021-06-03 10:19:01+00:00,231.0914,10.15,13.53,47.84626,-54.09684
2021-06-03 10:29:01+00:00,226.0398,10.2,13.53,47.84626,-54.09684
2021-06-03 10:39:01+00:00,224.2914,10.1,13.53,47.84626,-54.09684
2021-06-03 10:49:01+00:00,223.0631,10.0,13.53,47.84626,-54.09684
2021-06-03 10:59:01+00:00,220.0464,10.0,13.53,47.84626,-54.09684
2021-06-03 11:09:01+00:00,217.3698,10.0,13.53,47.84626,-54.09684
2021-06-03 11:19:01+00:00,215.7481,9.9,14.32,47.84626,-54.09684
2021-06-03 11:29:01+00:00,215.4364,9.9,14.32,47.84626,-54.09684
2021-06-03 11:39:01+00:00,215.7148,9.9,14.32,47.84626,-54.09684
2021-06-03 11:49:01+00:00,217.6564,9.9,14.32,47.84626,-54.09684
2021-06-03 11:59:01+00:00,219.1098,9.9,14.32,47.84626,-54.09684
2021-06-03 12:09:01+00:00,219.9348,9.9,14.32,47.84626,-54.09684
2021-06-03 12:19:00+00:00,219.3414,9.9,14.48,47.84626,-54.09684
2021-06-03 12:29:00+00:00,219.2015,9.9,14.48,47.84626,-54.09684
2021-06-03 12:39:00+00:00,219.8398,9.9,14.48,47.84626,-54.09684
2021-06-03 12:49:00+00:00,220.1797,9.9,14.48,47.84626,-54.09684
2021-06-03 12:59:00+00:00,219.2765,9.89,14.48,47.84626,-54.09684
2021-06-03 13:09:00+00:00,220.3131,9.8,14.48,47.84626,-54.09684
2021-06-03 13:19:01+00:00,222.1814,9.75,14.4,47.84626,-54.09684
2021-06-03 13:29:01+00:00,223.4498,9.7,14.4,47.84626,-54.09684
2021-06-03 13:39:01+00:00,223.3548,9.69,14.4,47.84626,-54.09684
2021-06-03 13:49:01+00:00,223.0931,9.65,14.4,47.84626,-54.09684
2021-06-03 13:59:01+00:00,223.8431,9.6,14.4,47.84626,-54.09684
2021-06-03 14:09:01+00:00,224.9464,9.6,14.4,47.84626,-54.09684
2021-06-03 14:19:01+00:00,224.7747,9.57,14.4,47.84626,-54.09684
2021-06-03 14:29:01+00:00,226.5431,9.5,14.4,47.84626,-54.09684
2021-06-03 14:39:01+00:00,228.6831,9.5,14.4,47.84626,-54.09684
2021-06-03 14:49:01+00:00,228.5748,9.5,14.4,47.84626,-54.09684
2021-06-03 14:59:01+00:00,229.8848,9.44,14.4,47.84626,-54.09684
2021-06-03 15:09:01+00:00,234.7448,9.4,14.4,47.84626,-54.09684
2021-06-03 15:19:01+00:00,237.618,9.3,14.32,47.84626,-54.09684
2021-06-03 15:29:01+00:00,239.4581,9.39,14.32,47.84626,-54.09684
2021-06-03 15:39:01+00:00,244.6598,9.4,14.32,47.84626,-54.09684
2021-06-03 15:49:01+00:00,253.5064,9.3,14.32,47.84626,-54.09684
2021-06-03 15:59:01+00:00,257.4331,9.2,14.32,47.84626,-54.09684
2021-06-03 16:09:01+00:00,259.6048,9.2,14.32,47.84626,-54.09684
2021-06-03 16:19:01+00:00,265.5047,9.1,14.24,47.84626,-54.09684
2021-06-03 16:29:01+00:00,272.08799999999997,9.0,14.24,47.84626,-54.09684
2021-06-03 16:39:01+00:00,274.4481,9.07,14.24,47.84626,-54.09684
2021-06-03 16:49:01+00:00,277.6547,9.13,14.24,47.84626,-54.09684
2021-06-03 16:59:01+00:00,284.3981,9.19,14.24,47.84626,-54.09684
2021-06-03 17:09:01+00:00,287.9097,9.19,14.24,47.84626,-54.09684
2021-06-03 17:19:01+00:00,289.0231,9.2,14.08,47.84626,-54.09684
2021-06-03 17:29:01+00:00,291.0497,9.1,14.08,47.84626,-54.09684
2021-06-03 17:39:01+00:00,296.3331,9.09,14.08,47.84626,-54.09684
2021-06-03 17:49:01+00:00,299.083,9.0,14.08,47.84626,-54.09684
2021-06-03 17:59:01+00:00,302.1713,9.0,14.08,47.84626,-54.09684
2021-06-03 18:09:01+00:00,305.0497,9.01,14.08,47.84626,-54.09684
2021-06-03 18:19:01+00:00,309.173,9.05,13.84,47.84626,-54.09684
2021-06-03 18:29:01+00:00,310.3113,9.0,13.84,47.84626,-54.09684
2021-06-03 18:39:01+00:00,309.3263,9.0,13.84,47.84626,-54.09684
2021-06-03 18:49:01+00:00,310.6229,9.0,13.84,47.84626,-54.09684
2021-06-03 18:59:01+00:00,312.7764,9.0,13.84,47.84626,-54.09684
2021-06-03 19:09:01+00:00,312.688,8.99,13.84,47.84626,-54.09684
2021-06-03 19:19:01+00:00,311.9446,8.96,13.84,47.84626,-54.09684
2021-06-03 19:29:01+00:00,311.5563,8.9,13.84,47.84626,-54.09684
2021-06-03 19:39:01+00:00,309.7863,8.9,13.84,47.84626,-54.09684
2021-06-03 19:49:01+00:00,307.763,8.8,13.84,47.84626,-54.09684
2021-06-03 19:59:01+00:00,308.0564,8.8,13.84,47.84626,-54.09684
2021-06-03 20:09:01+00:00,306.8846,8.8,13.84,47.84626,-54.09684
2021-06-03 20:19:01+00:00,303.8414,8.86,13.76,47.84626,-54.09684
2021-06-03 20:29:01+00:00,298.113,8.91,13.76,47.84626,-54.09684
2021-06-03 20:39:01+00:00,296.2114,9.02,13.76,47.84626,-54.09684
2021-06-03 20:49:01+00:00,293.3898,9.06,13.76,47.84626,-54.09684
2021-06-03 20:59:01+00:00,286.6997,9.12,13.76,47.84626,-54.09684
2021-06-03 21:09:01+00:00,279.33799999999997,9.37,13.76,47.84626,-54.09684
2021-06-03 21:19:01+00:00,274.6163,9.1,13.68,47.84626,-54.09684
2021-06-03 21:29:01+00:00,268.3764,9.14,13.68,47.84626,-54.09684
2021-06-03 21:39:01+00:00,259.5198,9.2,13.68,47.84626,-54.09684
2021-06-03 21:49:01+00:00,252.1981,9.2,13.68,47.84626,-54.09684
2021-06-03 21:59:01+00:00,246.5947,9.2,13.68,47.84626,-54.09684
2021-06-03 22:09:01+00:00,242.7664,9.2,13.68,47.84626,-54.09684
2021-06-03 22:19:01+00:00,239.8281,9.2,13.6,47.84626,-54.09684
2021-06-03 22:29:01+00:00,234.1732,9.2,13.6,47.84626,-54.09684
2021-06-03 22:39:01+00:00,227.4781,9.3,13.6,47.84626,-54.09684
2021-06-03 22:49:01+00:00,224.6698,9.39,13.6,47.84626,-54.09684
2021-06-03 22:59:01+00:00,222.3848,9.4,13.6,47.84626,-54.09684
2021-06-03 23:09:01+00:00,215.8364,9.5,13.6,47.84626,-54.09684
2021-06-03 23:19:01+00:00,211.5714,9.52,13.29,47.84626,-54.09684
2021-06-03 23:29:01+00:00,212.5648,9.59,13.29,47.84626,-54.09684
2021-06-03 23:39:01+00:00,211.1898,9.6,13.29,47.84626,-54.09684
2021-06-03 23:49:01+00:00,206.0831,9.66,13.29,47.84626,-54.09684
2021-06-03 23:59:01+00:00,205.0131,9.7,13.29,47.84626,-54.09684
